Flag for U.S.A. Weather past 2 weeks in Columbia, South Carolina, U.S.A.

Now
68 °F

Clear.


Feels Like: 68 °F
Forecast: 67 / 88 °F
Wind: No wind

Location: Columbia Owens Downtown Airport

Current Time: Aug 29, 2015 at 2:50:32 AM

Latest Report: Aug 29, 2015 at 1:53 AM


Visibility: 10 mi

Pressure: 30.17 "Hg

Humidity: 78%

Dew point: 61 °F

Location of ColumbiaLocation

Historic Weather in Columbia — Graph

°F

Columbia temperature yesterday

Maximum temperature yesterday: 89 °F (at 3:53 PM)
Minimum temperature yesterday: 69 °F (at 5:53 AM)
Average temperature yesterday: 78 °F

Past Weeks' High & Low Weather Summary

 TemperatureHumidityPressure
High94 °F (Aug 25, 2:53 PM)93% (Aug 24, 3:53 AM)30.19 "Hg (Aug 24, 3:53 AM)
Low69 °F (Aug 15, 5:53 AM)32% (Aug 14, 3:53 PM)29.81 "Hg (Aug 25, 5:53 PM)
Average81 °F69%30.02 "Hg
* Reported Aug 14 12:53 AM — Aug 29 12:53 AM, Columbia, Weather by CustomWeather, © 2015

Note: Actual official high and low records may vary slightly from our data, if they occured in-between our weather recording intervals... More about our weather records

Advertising

Columbia weather history for previous 24 hours

 ConditionsComfort  
Time TempWeatherWind HumidityBarometerVisibility
12:53 AM
Sat, Aug 29
71 °FClear.No wind71%30.18 "Hg10 mi
11:53 PM
Fri, Aug 28
72 °FClear.No wind68%30.17 "Hg10 mi
10:53 PM73 °FClear.No wind66%30.17 "Hg10 mi
9:53 PM76 °FClear.No wind58%30.16 "Hg10 mi
8:53 PM78 °FSunny.No wind54%30.14 "Hg10 mi
7:53 PM81 °FSunny.No wind49%30.11 "Hg10 mi
6:53 PM85 °FSunny.5 mph40%30.10 "Hg10 mi
5:53 PM87 °FSunny.No wind36%30.09 "Hg10 mi
4:53 PM89 °FSunny.6 mph32%30.09 "Hg10 mi
3:53 PM89 °FSunny.7 mph35%30.11 "Hg10 mi
2:53 PM88 °FPassing clouds.6 mph39%30.13 "Hg10 mi
1:53 PM87 °FScattered clouds.7 mph45%30.15 "Hg10 mi
12:53 PM84 °FPartly sunny.7 mph53%30.16 "Hg10 mi
11:53 AM83 °FPassing clouds.6 mph55%30.17 "Hg10 mi
10:53 AM79 °FSunny.8 mph65%30.17 "Hg10 mi
9:53 AM77 °FSunny.3 mph66%30.15 "Hg10 mi
8:53 AM74 °FSunny.No wind69%30.14 "Hg10 mi
7:53 AM70 °FClear.5 mph76%30.13 "Hg10 mi
6:53 AM69 °FClear.5 mph79%30.10 "Hg10 mi
5:53 AM69 °FClear.3 mph81%30.08 "Hg10 mi
4:53 AM70 °FClear.No wind81%30.07 "Hg10 mi
3:53 AM71 °FClear.No wind81%30.07 "Hg10 mi
2:53 AM72 °FClear.3 mph81%30.08 "Hg10 mi
Weather by CustomWeather, © 2015

See weather overviewHow to use our weather pages